Terminal Aerodrome Forecast
Issued by NWS

Home | Current Version | Previous Version | Graphics & Text | Print | Product List | Glossary On
Versions: 1 2 3 4 5 6 7 8 9 10 11 12 13 14 15 16 17 18 19 20 21 22 23 24 25 26 27 28 29 30 31 32 33 34 35 36 37 38 39 40 41 42 43 44 45 46 47 48 49 50
000
FTUS43 KGRB 191703 AAC
TAFRHI
TAF AMD
KRHI 191703Z 1917/2012 28007KT P6SM VCSH BKN010
      TEMPO 1917/1921 6SM -SHRA SCT010 BKN020
     FM192100 34006KT P6SM VCSH BKN020
     FM200300 32003KT 1 1/2SM BR SCT004 BKN010
     FM200500 00000KT 3/4SM BR OVC004=

USA.gov is the U.S. government's official web portal to all federal, state and local government web resources and services.